Find Starlink 5653

NORAD ID: 55345 Int'l Des: 2023-013 Owner: SPXS Country: US Constellation: starlink operational
LEOCIRCULAR

当前视图

正在加载3D地球...

About Starlink 5653

Starlink 5653 (NORAD 55345) is a starlink constellation satellite (v1.5) launched Jan 26, 2023 by SPXS of US. It operates in LEO, CIRCULAR orbit with a mass of 305.00 kg.

关于 Starlink 5653

正在加载描述...

即将过境

Passes for default location (London). Set your location on the main map for personalized predictions.

高度历史

Loading altitude history...

两行轨道根数

1 55345U 23013Q 26167.06097345 .00001357 00000-0 58838-4 0 9999
2 55345 43.0056 93.4992 0001683 264.0858 95.9802 15.27584857186885
Epoch: Jun 16, 2026 • Age: 62 hours

当前状态

高度 485.8 km
速度 7.63 km/s
星下点 36.32°N, 72.67°E
发射日期 Jan 26, 2023
运行时间 3.3 years
类型 internet

技术详情

分类 Payload
质量 305.00 kg
干质量 290.00 kg
总质量 305.00 kg
长度 0.20 m
直径 2.80 m
跨度 9.00 m
形状 Box + pan
制造商 SPXS
平台类型 Starlink
阶段状态 In Orbit
所有者/国家 SPXS/US

Most Searched